CW2796 Weather Reports


time (UTC)temp
C
wind
direction
speed
KPH
gust
KPH
rain 1hr
cm
rain 24hr
cm
rain mn
cm
humidity
%
barometer
mb
20220927003059 39 239 1.6 9.7 0.00 0.00 0.00 11 1009.5
20220927001603 39 229 1.6 6.4 0.00 0.00 0.00 10 1009.5
20220927000057 40 252 1.6 12.9 0.00 0.00 0.00 10 1009.6
20220926234547 40 271 3.2 11.3 0.00 0.00 0.00 10 1009.7
20220926233058 40 352 1.6 9.7 0.00 0.00 0.00 10 1009.9
20220926231549 40 325 1.6 11.3 0.00 0.00 0.00 9 1010.0
20220926230058 40 275 4.8 14.5 0.00 0.00 0.00 10 1010.0
20220926224558 39 307 4.8 11.3 0.00 0.00 0.00 10 1010.1
20220926223051 40 281 4.8 16.1 0.00 0.00 0.00 10 1010.3
20220926221606 39 203 8.0 14.5 0.00 0.00 0.00 10 1010.4
20220926220102 40 263 4.8 14.5 0.00 0.00 0.00 9 1010.6
20220926214554 40 243 6.4 16.1 0.00 0.00 0.00 10 1010.6
20220926213056 40 300 8.0 16.1 0.00 0.00 0.00 10 1010.7
20220926211622 40 342 1.6 14.5 0.00 0.00 0.00 9 1010.9
20220926210101 40 360 3.2 12.9 0.00 0.00 0.00 9 1011.1
20220926204553 40 333 1.6 14.5 0.00 0.00 0.00 9 1011.2
20220926203059 39 311 4.8 14.5 0.00 0.00 0.00 9 1011.5
20220926201625 39 260 3.2 11.3 0.00 0.00 0.00 9 1011.8
20220926200122 38 319 3.2 11.3 0.00 0.00 0.00 10 1012.1
20220926194553 38 326 4.8 14.5 0.00 0.00 0.00 9 1012.3
20220926193111 38 230 3.2 12.9 0.00 0.00 0.00 9 1012.4
20220926191557 37 300 4.8 14.5 0.00 0.00 0.00 10 1012.7
20220926190058 37 329 1.6 9.7 0.00 0.00 0.00 10 1012.9
20220926184552 37 333 4.8 9.7 0.00 0.00 0.00 10 1013.1
20220926183500 35 0 3.2 6.4 0.00 0.00 0.00 11 1013.2
20220926120102 24 0 0.0 3.2 0.00 0.00 0.00 19 1011.5
20220926114549 24 55 1.6 4.8 0.00 0.00 0.00 19 1011.4
20220926113120 25 62 1.6 3.2 0.00 0.00 0.00 18 1011.3
20220926111547 25 62 1.6 3.2 0.00 0.00 0.00 18 1011.3
20220926110058 25 0 0.0 4.8 0.00 0.00 0.00 18 1011.2
20220926104551 25 67 0.0 6.4 0.00 0.00 0.00 17 1011.2
20220926103057 25 57 0.0 3.2 0.00 0.00 0.00 18 1011.2
20220926101614 26 0 0.0 4.8 0.00 0.00 0.00 18 1011.2
20220926100111 26 0 0.0 4.8 0.00 0.00 0.00 17 1011.3
20220926094603 27 90 0.0 3.2 0.00 0.00 0.00 17 1011.3
20220926093105 27 121 0.0 3.2 0.00 0.00 0.00 16 1011.5
20220926091559 27 133 0.0 6.4 0.00 0.00 0.00 16 1011.4
20220926090055 28 156 1.6 4.8 0.00 0.00 0.00 15 1011.4
20220926084608 28 159 1.6 8.0 0.00 0.00 0.00 14 1011.3
20220926083138 28 0 0.0 6.4 0.00 0.00 0.00 14 1011.3
20220926081611 28 30 0.0 9.7 0.00 0.00 0.00 13 1011.4
20220926080105 28 0 0.0 4.8 0.00 0.00 0.00 13 1011.3
20220926074602 29 323 1.6 4.8 0.00 0.00 0.00 13 1011.3
20220926073119 29 252 1.6 4.8 0.00 0.00 0.00 13 1011.4
20220926071557 30 0 0.0 4.8 0.00 0.00 0.00 12 1011.4
20220926070101 31 0 0.0 6.4 0.00 0.00 0.00 11 1011.4
20220926064548 32 0 0.0 8.0 0.00 0.00 0.00 11 1011.5
20220926063055 32 33 4.8 11.3 0.00 0.00 0.00 10 1011.5
20220926061551 32 59 1.6 8.0 0.00 0.00 0.00 11 1011.6
20220926060056 32 19 3.2 9.7 0.00 0.00 0.00 11 1011.6
20220926054616 32 32 6.4 16.1 0.00 0.00 0.00 10 1011.7
20220926053100 32 344 4.8 14.5 0.00 0.00 0.00 10 1011.7
20220926051600 32 360 4.8 12.9 0.00 0.00 0.00 10 1011.7
20220926050110 32 49 4.8 11.3 0.00 0.00 0.00 10 1011.7
20220926044609 32 33 6.4 16.1 0.00 0.00 0.00 10 1011.6
20220926043050 32 11 6.4 11.3 0.00 0.00 0.00 10 1011.7
20220926041558 32 34 4.8 12.9 0.00 0.00 0.00 9 1011.6
20220926040053 33 45 4.8 14.5 0.00 0.00 0.00 9 1011.7
20220926034555 33 50 8.0 16.1 0.00 0.00 0.00 9 1011.7
20220926033101 33 44 6.4 9.7 0.00 0.00 0.00 9 1011.6
20220926031603 33 25 3.2 8.0 0.00 0.00 0.00 9 1011.5
20220926030053 34 37 4.8 9.7 0.00 0.00 0.00 9 1011.4
20220926024606 35 5 6.4 16.1 0.00 0.00 0.00 9 1011.3
20220926023110 35 347 6.4 14.5 0.00 0.00 0.00 9 1011.2
20220926021604 35 337 4.8 17.7 0.00 0.00 0.00 8 1011.1
20220926020111 35 323 4.8 17.7 0.00 0.00 0.00 8 1010.9
20220926014606 36 273 8.0 17.7 0.00 0.00 0.00 8 1010.8
20220926013048 36 345 9.7 22.5 0.00 0.00 0.00 8 1010.8
20220926011555 37 324 12.9 24.1 0.00 0.00 0.00 7 1010.7
20220926010102 37 351 11.3 22.5 0.00 0.00 0.00 7 1010.7
20220926004555 38 335 9.7 20.9 0.00 0.00 0.00 7 1010.7